Wenatchee, WA
on Saturday, February 2, 2013

Saturday
Previous Day Next Day
Daily Summary
 ActualAverageRecord
Temperature
Mean Temperature °F 30°F  
Max Temperature 32°F 36°F 52°F (2005)
Min Temperature 21°F 23°F -3°F (1969)
Degree Days
Heating Degree Days 38 35  
Month to date heating degree days 74 70  
Since 1 July heating degree days 4017 4327  
Cooling Degree Days 0 0  
Month to date cooling degree days 0 0  
Year to date cooling degree days 0 0  
Moisture
Dew Point 25°F   
Average Humidity 88    
Maximum Humidity 93    
Minimum Humidity 82    
Precipitation
Precipitation 0.00 in 0.06 in 0.15 in (1963)
Month to date precipitation 0.00 0.11  
Year to date precipitation 1.46 1.98  
Snow
Snow 0.00 in 0.30 in in ()
Month to date snowfall 0.0 0.6  
Since 1 July snowfall 43.8 41.0  
Snow Depth 5.00 in   
Wind
Wind Speed 1 mph   
Max Wind Speed 6 mph   
Max Gust Speed mph   
Visibility 3 miles   
Events Fog   

Key: T is trace of precipitation, MM is missing value
Source: NWS Daily Summary
Time(PST)TemperatureDew PointHumidity Pressure Visibility Wind DirectionWind SpeedGust SpeedPrecipitationEvents Conditions
12:55 AM 28.9°F 26.1°F 89% 30.48 in 10.0 miles Calm Calm - N/A   Clear
1:55 AM 30.0°F 27.0°F 88% 30.48 in 9.0 miles Calm Calm - N/A   Clear
2:55 AM 28.9°F 26.1°F 89% 30.48 in 9.0 miles Calm Calm - N/A   Clear
3:55 AM 28.0°F 25.0°F 88% 30.49 in 5.0 miles Calm Calm - N/A   Clear
4:55 AM 27.0°F 24.1°F 89% 30.49 in 4.0 miles NNE 3.5 mph - N/A   Clear
5:36 AM 26.6°F 23.0°F 86% 30.44 in 4.0 miles Calm Calm - N/A   Partly Cloudy
5:55 AM 26.1°F 23.0°F 88% 30.49 in 2.0 miles Calm Calm - N/A   Scattered Clouds
5:58 AM 24.8°F 23.0°F 93% 30.44 in 1.0 miles Calm Calm - N/A   Mist
6:05 AM 26.6°F 23.0°F 86% 30.44 in 0.8 miles Calm Calm - N/A   Mist
6:08 AM 26.6°F 23.0°F 86% 30.44 in 1.2 miles Calm Calm - N/A   Scattered Clouds
6:11 AM 24.8°F 23.0°F 93% 30.44 in 3.0 miles Calm Calm - N/A   Partly Cloudy
6:39 AM 23.0°F 19.4°F 86% 30.44 in 0.2 miles WNW 5.8 mph - N/A Fog Light Freezing Fog
6:55 AM 24.1°F 21.9°F 91% 30.49 in 0.2 miles Calm Calm - N/A Fog Light Freezing Fog
7:55 AM 25.0°F 23.0°F 92% 30.52 in 0.2 miles Calm Calm - N/A Fog Light Freezing Fog
8:55 AM 26.1°F 24.1°F 92% 30.52 in 0.2 miles Calm Calm - N/A Fog Light Freezing Fog
9:55 AM 28.0°F 25.0°F 88% 30.52 in 0.2 miles Calm Calm - N/A Fog Light Freezing Fog
10:55 AM 28.9°F 25.0°F 85% 30.51 in 0.2 miles SW 3.5 mph - N/A Fog Light Freezing Fog
11:55 AM 30.0°F 25.0°F 82% 30.49 in 0.2 miles Calm Calm - N/A   Haze
12:08 PM 30.2°F 26.6°F 86% 30.44 in 0.2 miles Calm Calm - N/A   Haze
12:55 PM 32.0°F 28.0°F 85% 30.45 in 0.2 miles Calm Calm - N/A Fog Fog
1:55 PM 30.9°F 28.0°F 89% 30.43 in 0.2 miles Calm Calm - N/A Fog Light Freezing Fog
2:37 PM 30.2°F 28.4°F 93% 30.38 in 0.5 miles Calm Calm - N/A Fog Light Freezing Fog
2:55 PM 32.0°F 28.9°F 88% 30.42 in 0.8 miles Calm Calm - N/A   Mist
3:01 PM 32.0°F 28.4°F 87% 30.37 in 2.0 miles Calm Calm - N/A   Mostly Cloudy
3:06 PM 32.0°F 28.4°F 87% 30.37 in 8.0 miles Calm Calm - N/A   Scattered Clouds
3:55 PM 32.0°F 28.0°F 85% 30.40 in 10.0 miles Calm Calm - N/A   Clear
4:55 PM 30.9°F 27.0°F 85% 30.39 in 10.0 miles Calm Calm - N/A   Clear
5:55 PM 30.0°F 26.1°F 85% 30.38 in 10.0 miles Calm Calm - N/A   Clear
6:55 PM 28.0°F 25.0°F 88% 30.37 in 10.0 miles Calm Calm - N/A   Clear
7:55 PM 28.0°F 25.0°F 88% 30.35 in 10.0 miles Calm Calm - N/A   Clear
8:55 PM 27.0°F 24.1°F 89% 30.34 in 6.0 miles Calm Calm - N/A   Clear
9:55 PM 26.1°F 24.1°F 92% 30.32 in 7.0 miles Calm Calm - N/A   Clear
10:19 PM 24.8°F 21.2°F 86% 30.27 in 1.5 miles Calm Calm - N/A   Partly Cloudy
10:21 PM 24.8°F 21.2°F 86% 30.27 in 0.8 miles Calm Calm - N/A   Mist
10:50 PM 23.0°F 21.2°F 93% 30.26 in 1.0 miles West 3.5 mph - N/A   Mist
10:53 PM 23.0°F 21.2°F 93% 30.26 in 0.5 miles Calm Calm - N/A Fog Light Freezing Fog
10:55 PM 23.0°F 21.0°F 92% 30.30 in 0.5 miles WNW 3.5 mph - N/A Fog Light Freezing Fog
11:02 PM 24.8°F 21.2°F 86% 30.25 in 0.2 miles NW 3.5 mph - N/A Fog Light Freezing Fog
11:55 PM 25.0°F 23.0°F 92% 30.30 in 0.2 miles NW 4.6 mph - N/A Fog Light Freezing Fog
Moon Phase
Feb. 02 Feb. 03 Feb. 10 Feb. 17 Feb. 25
Sunrise:07:25 AM (PST) Moon Rise:No Moon Rise/
Sunset:05:04 PM (PST) Moon Set:10:06 AM (PST)

Copyright © 2014 The Weather Underground, Inc.